DKH3994 RKPC-ZSJN

Flight info

Callsign DKH3994
Flight time 1h 53m
Altitude 38000
Route LIMDI1E LIMDI Y677 TOLIS Y655 NONOS Z55 AGAVO/K0848S1160 A591 IKEKA W4 BASOV
Aircraft A20N/M-SDE2E3FGHIRWXY/LB1

Departure

Time 2026-04-17 11:47
Airport Jeju International Airport (RKPC)

Arrival

Time 2026-04-17 13:41
Airport Jinan Yaoqiang International Airport (ZSJN)
Time Latitude Longitude Altitude Speed Heading
2026-04-17 11:32 33.50605 126.48961 82 ft 0 kts 147°
2026-04-17 11:35 33.50608 126.48959 81 ft 2 kts 147°
2026-04-17 11:35 33.50621 126.48949 80 ft 2 kts 147°
2026-04-17 11:36 33.50634 126.48940 79 ft 2 kts 147°
2026-04-17 11:36 33.50647 126.48932 79 ft 2 kts 161°
2026-04-17 11:36 33.50661 126.48927 78 ft 2 kts 170°
2026-04-17 11:36 33.50676 126.48925 77 ft 2 kts 173°
2026-04-17 11:37 33.50691 126.48920 77 ft 2 kts 159°
2026-04-17 11:37 33.50705 126.48913 76 ft 2 kts 148°
2026-04-17 11:37 33.50717 126.48903 76 ft 2 kts 147°
2026-04-17 11:37 33.50730 126.48894 75 ft 2 kts 147°
2026-04-17 11:38 33.50738 126.48888 75 ft 0 kts 147°
2026-04-17 11:40 33.50730 126.48893 75 ft 2 kts 149°
2026-04-17 11:40 33.50700 126.48911 76 ft 6 kts 172°
2026-04-17 11:40 33.50668 126.48888 78 ft 5 kts 234°
2026-04-17 11:40 33.50649 126.48852 80 ft 6 kts 238°
2026-04-17 11:41 33.50616 126.48788 83 ft 10 kts 238°
2026-04-17 11:41 33.50574 126.48705 86 ft 12 kts 238°
2026-04-17 11:41 33.50534 126.48629 88 ft 9 kts 239°
2026-04-17 11:41 33.50551 126.48562 88 ft 11 kts 327°
2026-04-17 11:42 33.50614 126.48516 85 ft 10 kts 317°
2026-04-17 11:42 33.50612 126.48436 85 ft 10 kts 239°
2026-04-17 11:42 33.50572 126.48360 86 ft 11 kts 238°
2026-04-17 11:42 33.50529 126.48277 86 ft 12 kts 238°
2026-04-17 11:43 33.50479 126.48177 84 ft 15 kts 238°
2026-04-17 11:43 33.50422 126.48068 86 ft 14 kts 238°
2026-04-17 11:43 33.50372 126.47971 90 ft 12 kts 238°
2026-04-17 11:43 33.50330 126.47888 95 ft 9 kts 238°
2026-04-17 11:44 33.50293 126.47817 97 ft 11 kts 238°
2026-04-17 11:44 33.50245 126.47720 98 ft 15 kts 238°
2026-04-17 11:44 33.50174 126.47585 93 ft 22 kts 238°
2026-04-17 11:44 33.50083 126.47406 90 ft 26 kts 238°
2026-04-17 11:45 33.49989 126.47222 89 ft 25 kts 238°
2026-04-17 11:45 33.49932 126.47111 89 ft 11 kts 238°
2026-04-17 11:45 33.49891 126.47030 89 ft 11 kts 239°
2026-04-17 11:45 33.49886 126.46944 88 ft 11 kts 307°
2026-04-17 11:46 33.49961 126.46884 82 ft 12 kts 334°
2026-04-17 11:46 33.50012 126.46894 79 ft 7 kts 49°
2026-04-17 11:46 33.50023 126.46912 79 ft 0 kts 58°
2026-04-17 11:46 33.50023 126.46915 79 ft 0 kts 58°
2026-04-17 11:47 33.50097 126.47058 79 ft 55 kts 58°
2026-04-17 11:47 33.50435 126.47714 85 ft 126 kts 58°
2026-04-17 11:47 33.51004 126.48824 136 ft 177 kts 57°
2026-04-17 11:47 33.51644 126.50058 815 ft 177 kts 58°
2026-04-17 11:48 33.52277 126.51281 1699 ft 172 kts 60°
2026-04-17 11:48 33.52899 126.52488 2310 ft 178 kts 62°
2026-04-17 11:48 33.53574 126.53818 2768 ft 193 kts 62°
2026-04-17 11:48 33.54293 126.55236 3194 ft 210 kts 62°
2026-04-17 11:49 33.55094 126.56818 3565 ft 232 kts 61°
2026-04-17 11:49 33.55967 126.58534 4061 ft 250 kts 60°
2026-04-17 11:49 33.56891 126.60341 4628 ft 265 kts 59°
2026-04-17 11:49 33.57881 126.62270 5280 ft 277 kts 59°
2026-04-17 11:50 33.58896 126.64252 6085 ft 282 kts 58°
2026-04-17 11:50 33.59927 126.66269 6911 ft 286 kts 58°
2026-04-17 11:50 33.60959 126.68298 7701 ft 291 kts 58°
2026-04-17 11:50 33.62012 126.70386 8407 ft 295 kts 61°
2026-04-17 11:51 33.62600 126.72731 8812 ft 297 kts 90°
2026-04-17 11:51 33.62142 126.75120 8987 ft 295 kts 120°
2026-04-17 11:51 33.60817 126.76949 8987 ft 290 kts 147°
2026-04-17 11:51 33.59084 126.78181 8999 ft 291 kts 153°
2026-04-17 11:52 33.57328 126.79369 8999 ft 291 kts 152°
2026-04-17 11:52 33.55568 126.80596 8996 ft 291 kts 152°
2026-04-17 11:52 33.53841 126.81831 8991 ft 291 kts 151°
2026-04-17 11:52 33.52017 126.82835 8968 ft 286 kts 172°
2026-04-17 11:53 33.50064 126.82726 8979 ft 280 kts 200°
2026-04-17 11:53 33.48403 126.81598 8987 ft 276 kts 225°
2026-04-17 11:53 33.47255 126.79745 9000 ft 276 kts 240°
2026-04-17 11:53 33.46280 126.77766 8999 ft 276 kts 240°
2026-04-17 11:54 33.45305 126.75806 8999 ft 276 kts 240°
2026-04-17 11:54 33.44305 126.73821 8998 ft 276 kts 240°
2026-04-17 11:54 33.43313 126.71869 9000 ft 276 kts 239°
2026-04-17 11:54 33.42305 126.69897 9001 ft 276 kts 239°
2026-04-17 11:55 33.41300 126.67934 9003 ft 277 kts 239°
2026-04-17 11:55 33.40302 126.65987 9000 ft 277 kts 239°
2026-04-17 11:55 33.39312 126.64022 9004 ft 277 kts 244°
2026-04-17 11:55 33.38782 126.61822 8996 ft 276 kts 268°
2026-04-17 11:56 33.39057 126.59541 9242 ft 283 kts 284°
2026-04-17 11:56 33.39579 126.57275 10062 ft 284 kts 284°
2026-04-17 11:56 33.40090 126.55003 10786 ft 289 kts 284°
2026-04-17 11:56 33.40619 126.52602 11162 ft 306 kts 284°
2026-04-17 11:57 33.41169 126.50083 11488 ft 323 kts 284°
2026-04-17 11:57 33.41741 126.47437 12032 ft 332 kts 284°
2026-04-17 11:57 33.42311 126.44797 12786 ft 333 kts 284°
2026-04-17 11:57 33.42888 126.42117 13521 ft 335 kts 283°
2026-04-17 11:58 33.43475 126.39384 14057 ft 343 kts 283°
2026-04-17 11:58 33.44075 126.36585 14618 ft 348 kts 283°
2026-04-17 11:58 33.44675 126.33793 15311 ft 350 kts 282°
2026-04-17 11:58 33.45273 126.31001 16009 ft 351 kts 282°
2026-04-17 11:59 33.45885 126.28160 16700 ft 352 kts 282°
2026-04-17 11:59 33.46492 126.25324 17381 ft 353 kts 282°
2026-04-17 11:59 33.47095 126.22506 18053 ft 352 kts 281°
2026-04-17 11:59 33.47700 126.19671 18691 ft 353 kts 281°
2026-04-17 12:00 33.48302 126.16832 19256 ft 355 kts 281°
2026-04-17 12:00 33.48915 126.13948 19805 ft 358 kts 281°
2026-04-17 12:00 33.49522 126.11088 20343 ft 360 kts 281°
2026-04-17 12:00 33.50135 126.08186 20878 ft 363 kts 281°
2026-04-17 12:01 33.50753 126.05263 21397 ft 365 kts 281°
2026-04-17 12:01 33.51380 126.02296 21966 ft 366 kts 281°
2026-04-17 12:01 33.51998 125.99358 22533 ft 367 kts 280°
2026-04-17 12:01 33.52623 125.96385 23049 ft 369 kts 281°
2026-04-17 12:02 33.53247 125.93408 23532 ft 371 kts 280°
2026-04-17 12:02 33.53865 125.90450 24020 ft 372 kts 281°
2026-04-17 12:02 33.54501 125.87412 24532 ft 373 kts 281°
2026-04-17 12:02 33.55131 125.84404 25003 ft 375 kts 281°
2026-04-17 12:03 33.55768 125.81378 25459 ft 377 kts 281°
2026-04-17 12:03 33.56410 125.78343 25913 ft 379 kts 281°
2026-04-17 12:03 33.57052 125.75300 26378 ft 379 kts 281°
2026-04-17 12:03 33.57698 125.72224 26805 ft 381 kts 281°
2026-04-17 12:04 33.58338 125.69160 27208 ft 383 kts 281°
2026-04-17 12:04 33.58991 125.66045 27603 ft 384 kts 281°
2026-04-17 12:04 33.59631 125.62965 27966 ft 385 kts 281°
2026-04-17 12:04 33.60284 125.59825 28299 ft 387 kts 281°
2026-04-17 12:05 33.60932 125.56705 28598 ft 389 kts 281°
2026-04-17 12:05 33.61585 125.53556 28713 ft 395 kts 281°
2026-04-17 12:05 33.62256 125.50317 28885 ft 399 kts 281°
2026-04-17 12:05 33.62918 125.47119 29187 ft 399 kts 281°
2026-04-17 12:06 33.63576 125.43923 29585 ft 397 kts 281°
2026-04-17 12:06 33.64241 125.40711 29963 ft 394 kts 281°
2026-04-17 12:06 33.64892 125.37553 30312 ft 392 kts 281°
2026-04-17 12:06 33.65546 125.34371 30701 ft 389 kts 280°
2026-04-17 12:07 33.66191 125.31233 31066 ft 387 kts 280°
2026-04-17 12:07 33.66822 125.28135 31381 ft 385 kts 280°
2026-04-17 12:07 33.67455 125.25030 31715 ft 384 kts 280°
2026-04-17 12:07 33.68089 125.21925 32022 ft 382 kts 280°
2026-04-17 12:08 33.68722 125.18819 32344 ft 380 kts 280°
2026-04-17 12:08 33.69344 125.15758 32650 ft 379 kts 280°
2026-04-17 12:08 33.69966 125.12704 32974 ft 377 kts 279°
2026-04-17 12:08 33.70579 125.09682 33263 ft 375 kts 279°
2026-04-17 12:09 33.71194 125.06645 33517 ft 374 kts 279°
2026-04-17 12:09 33.71807 125.03622 33815 ft 372 kts 279°
2026-04-17 12:09 33.72411 125.00633 34072 ft 371 kts 279°
2026-04-17 12:09 33.73016 124.97648 34304 ft 370 kts 279°
2026-04-17 12:10 33.73623 124.94633 34492 ft 370 kts 278°
2026-04-17 12:10 33.74223 124.91656 34658 ft 371 kts 278°
2026-04-17 12:10 33.74821 124.88661 34824 ft 371 kts 278°
2026-04-17 12:10 33.75430 124.85638 35005 ft 370 kts 279°
2026-04-17 12:11 33.76030 124.82629 35157 ft 370 kts 278°
2026-04-17 12:11 33.76625 124.79662 35328 ft 369 kts 278°
2026-04-17 12:11 33.77227 124.76649 35472 ft 369 kts 278°
2026-04-17 12:12 33.78420 124.70660 35720 ft 370 kts 278°
2026-04-17 12:12 33.79016 124.67672 35822 ft 370 kts 278°
2026-04-17 12:12 33.79607 124.64674 35921 ft 371 kts 278°
2026-04-17 12:13 33.80806 124.58625 35994 ft 372 kts 278°
2026-04-17 12:13 33.82268 124.52676 36008 ft 380 kts 288°
2026-04-17 12:14 33.85321 124.47343 35995 ft 403 kts 304°
2026-04-17 12:14 33.87495 124.45097 36001 ft 417 kts 314°
2026-04-17 12:14 33.90031 124.43314 36003 ft 430 kts 324°
2026-04-17 12:15 33.95886 124.41573 36006 ft 452 kts 345°
2026-04-17 12:15 34.02173 124.41489 36018 ft 451 kts 348°
2026-04-17 12:16 34.08456 124.41476 36018 ft 450 kts 348°
2026-04-17 12:16 34.14718 124.41482 36010 ft 450 kts 348°
2026-04-17 12:17 34.20923 124.41485 36010 ft 447 kts 347°
2026-04-17 12:17 34.27135 124.41476 36021 ft 445 kts 347°
2026-04-17 12:18 34.33340 124.41474 36018 ft 446 kts 348°
2026-04-17 12:18 34.39573 124.41480 36017 ft 448 kts 348°
2026-04-17 12:19 34.45763 124.41484 36015 ft 446 kts 348°
2026-04-17 12:19 34.52001 124.41479 36019 ft 445 kts 347°
2026-04-17 12:20 34.58182 124.41476 36057 ft 446 kts 348°
2026-04-17 12:20 34.61304 124.41485 35923 ft 446 kts 348°
2026-04-17 12:20 34.64377 124.41476 35969 ft 448 kts 348°
2026-04-17 12:21 34.70629 124.41481 36024 ft 449 kts 348°
2026-04-17 12:21 34.76851 124.41479 36038 ft 448 kts 348°
2026-04-17 12:22 34.83115 124.41479 36026 ft 449 kts 348°
2026-04-17 12:22 34.89308 124.41481 36035 ft 448 kts 348°
2026-04-17 12:23 34.95581 124.41478 36041 ft 449 kts 348°
2026-04-17 12:23 35.01812 124.41481 36033 ft 448 kts 348°
2026-04-17 12:24 35.08031 124.41480 36029 ft 448 kts 348°
2026-04-17 12:24 35.14287 124.41485 36025 ft 448 kts 348°
2026-04-17 12:25 35.20524 124.41504 36031 ft 447 kts 348°
2026-04-17 12:25 35.26734 124.41519 36032 ft 448 kts 348°
2026-04-17 12:26 35.32955 124.41531 36032 ft 448 kts 348°
2026-04-17 12:26 35.39178 124.41532 36031 ft 447 kts 348°
2026-04-17 12:27 35.45434 124.41530 36030 ft 448 kts 348°
2026-04-17 12:27 35.51639 124.41536 36033 ft 447 kts 348°
2026-04-17 12:28 35.57861 124.41577 36035 ft 447 kts 348°
2026-04-17 12:28 35.64061 124.41605 36036 ft 448 kts 348°
2026-04-17 12:29 35.70305 124.41611 36042 ft 448 kts 348°
2026-04-17 12:29 35.76527 124.41612 36040 ft 446 kts 347°
2026-04-17 12:30 35.82789 124.41605 36035 ft 448 kts 348°
2026-04-17 12:30 35.89006 124.41600 36033 ft 447 kts 347°
2026-04-17 12:31 35.95218 124.41595 36047 ft 448 kts 347°
2026-04-17 12:31 36.01429 124.41583 36038 ft 447 kts 348°
2026-04-17 12:32 36.07659 124.41579 36034 ft 445 kts 347°
2026-04-17 12:32 36.13857 124.41567 36030 ft 447 kts 348°
2026-04-17 12:33 36.20089 124.41559 36038 ft 448 kts 348°
2026-04-17 12:33 36.26337 124.41547 36039 ft 448 kts 348°
2026-04-17 12:34 36.32565 124.41535 36045 ft 448 kts 348°
2026-04-17 12:34 36.38802 124.41534 36046 ft 448 kts 348°
2026-04-17 12:35 36.45007 124.41539 36040 ft 449 kts 348°
2026-04-17 12:35 36.51253 124.41538 36043 ft 448 kts 348°
2026-04-17 12:37 36.74510 124.35992 36047 ft 407 kts 317°
2026-04-17 12:38 36.78817 124.31525 36053 ft 395 kts 303°
2026-04-17 12:38 36.81920 124.26008 36052 ft 386 kts 291°
2026-04-17 12:39 36.83788 124.19834 36055 ft 379 kts 279°
2026-04-17 12:39 36.85001 124.13493 36056 ft 378 kts 279°
2026-04-17 12:40 36.86194 124.07102 36058 ft 380 kts 279°
2026-04-17 12:40 36.87378 124.00688 36054 ft 380 kts 279°
2026-04-17 12:41 36.88558 123.94232 36056 ft 380 kts 279°
2026-04-17 12:41 36.89730 123.87806 36052 ft 381 kts 279°
2026-04-17 12:42 36.90895 123.81377 36053 ft 381 kts 279°
2026-04-17 12:42 36.92074 123.74853 36050 ft 381 kts 279°
2026-04-17 12:43 36.93241 123.68388 36049 ft 381 kts 279°
2026-04-17 12:43 36.94402 123.61918 36048 ft 381 kts 279°
2026-04-17 12:44 36.95559 123.55453 36047 ft 382 kts 279°
2026-04-17 12:44 36.96710 123.48995 36047 ft 383 kts 279°
2026-04-17 12:45 36.97865 123.42507 36044 ft 384 kts 279°
2026-04-17 12:45 36.99011 123.36025 36046 ft 383 kts 279°
2026-04-17 12:46 37.00161 123.29501 36045 ft 384 kts 279°
2026-04-17 12:46 37.01301 123.23001 36045 ft 384 kts 279°
2026-04-17 12:47 37.02443 123.16491 36041 ft 385 kts 279°
2026-04-17 12:47 37.03581 123.09976 36042 ft 387 kts 279°
2026-04-17 12:48 37.04727 123.03396 36033 ft 387 kts 279°
2026-04-17 12:48 37.05862 122.96842 36026 ft 387 kts 279°
2026-04-17 12:49 37.07002 122.90243 36019 ft 387 kts 279°
2026-04-17 12:49 37.08136 122.83672 36022 ft 387 kts 279°
2026-04-17 12:50 37.09258 122.77127 36037 ft 387 kts 279°
2026-04-17 12:50 37.10395 122.70523 36106 ft 388 kts 279°
2026-04-17 12:51 37.11541 122.63947 36117 ft 388 kts 279°
2026-04-17 12:51 37.12676 122.57329 36112 ft 388 kts 279°
2026-04-17 12:52 37.13793 122.50742 36114 ft 388 kts 279°
2026-04-17 12:52 37.14907 122.44111 36118 ft 388 kts 279°
2026-04-17 12:53 37.16005 122.37534 36115 ft 388 kts 279°
2026-04-17 12:53 37.17108 122.30895 36113 ft 389 kts 279°
2026-04-17 12:54 37.18247 122.24284 36120 ft 390 kts 281°
2026-04-17 12:54 37.19770 122.17729 36118 ft 392 kts 284°
2026-04-17 12:55 37.21445 122.11265 36119 ft 392 kts 284°
2026-04-17 12:55 37.23124 122.04775 36109 ft 393 kts 284°
2026-04-17 12:56 37.24809 121.98251 36122 ft 393 kts 284°
2026-04-17 12:56 37.26485 121.91749 36114 ft 393 kts 285°
2026-04-17 12:57 37.28166 121.85216 36125 ft 393 kts 285°
2026-04-17 12:57 37.29830 121.78728 36121 ft 393 kts 285°
2026-04-17 12:58 37.31505 121.72186 36120 ft 393 kts 285°
2026-04-17 12:58 37.33163 121.65681 36120 ft 393 kts 284°
2026-04-17 12:59 37.34829 121.59128 36113 ft 394 kts 285°
2026-04-17 12:59 37.36486 121.52598 36117 ft 394 kts 285°
2026-04-17 13:00 37.38148 121.46024 36119 ft 395 kts 285°
2026-04-17 13:00 37.39798 121.39482 36120 ft 394 kts 285°
2026-04-17 13:01 37.41450 121.32899 36126 ft 395 kts 284°
2026-04-17 13:01 37.43082 121.26344 36117 ft 395 kts 284°
2026-04-17 13:02 37.44745 121.19724 36111 ft 396 kts 285°
2026-04-17 13:02 37.46692 121.13274 36129 ft 397 kts 288°
2026-04-17 13:03 37.48756 121.06799 36115 ft 399 kts 288°
2026-04-17 13:03 37.50805 121.00351 36130 ft 398 kts 288°
2026-04-17 13:04 37.52858 120.93876 36118 ft 399 kts 288°
2026-04-17 13:04 37.54904 120.87392 36112 ft 398 kts 288°
2026-04-17 13:05 37.56945 120.80915 36105 ft 399 kts 288°
2026-04-17 13:05 37.58996 120.74419 36112 ft 398 kts 289°
2026-04-17 13:06 37.61107 120.68009 36110 ft 399 kts 289°
2026-04-17 13:06 37.63038 120.61459 35829 ft 397 kts 284°
2026-04-17 13:06 37.63732 120.58141 35604 ft 394 kts 281°
2026-04-17 13:07 37.64258 120.54733 35385 ft 391 kts 278°
2026-04-17 13:07 37.64597 120.51360 35160 ft 389 kts 274°
2026-04-17 13:07 37.64764 120.47961 34951 ft 387 kts 271°
2026-04-17 13:07 37.64756 120.44569 34741 ft 388 kts 268°
2026-04-17 13:08 37.64584 120.41225 34520 ft 388 kts 266°
2026-04-17 13:08 37.64357 120.37828 34297 ft 388 kts 266°
2026-04-17 13:08 37.64122 120.34418 34075 ft 389 kts 266°
2026-04-17 13:08 37.63886 120.31044 33839 ft 390 kts 266°
2026-04-17 13:09 37.63649 120.27631 33591 ft 391 kts 266°
2026-04-17 13:09 37.63409 120.24210 33348 ft 393 kts 265°
2026-04-17 13:09 37.63165 120.20779 33099 ft 395 kts 266°
2026-04-17 13:09 37.62918 120.17322 32856 ft 396 kts 266°
2026-04-17 13:10 37.62674 120.13892 32616 ft 397 kts 266°
2026-04-17 13:10 37.62421 120.10405 32376 ft 399 kts 266°
2026-04-17 13:10 37.62169 120.06934 32137 ft 401 kts 266°
2026-04-17 13:10 37.61916 120.03450 31878 ft 403 kts 266°
2026-04-17 13:11 37.61659 119.99918 31627 ft 404 kts 266°
2026-04-17 13:11 37.61402 119.96410 31377 ft 406 kts 266°
2026-04-17 13:11 37.61140 119.92861 31139 ft 407 kts 266°
2026-04-17 13:11 37.60875 119.89298 30880 ft 409 kts 266°
2026-04-17 13:12 37.60607 119.85717 30624 ft 410 kts 266°
2026-04-17 13:12 37.60068 119.78559 30133 ft 414 kts 267°
2026-04-17 13:12 37.59795 119.74951 29865 ft 416 kts 266°
2026-04-17 13:13 37.59524 119.71359 29603 ft 418 kts 266°
2026-04-17 13:13 37.59247 119.67693 29343 ft 420 kts 266°
2026-04-17 13:13 37.58984 119.64029 29082 ft 421 kts 267°
2026-04-17 13:13 37.58736 119.60329 28816 ft 423 kts 268°
2026-04-17 13:14 37.58498 119.56645 28547 ft 425 kts 268°
2026-04-17 13:14 37.58259 119.52979 28294 ft 426 kts 268°
2026-04-17 13:14 37.58006 119.49202 28043 ft 428 kts 268°
2026-04-17 13:14 37.57753 119.45497 27777 ft 428 kts 268°
2026-04-17 13:15 37.57492 119.41760 27515 ft 428 kts 268°
2026-04-17 13:15 37.57231 119.38026 27253 ft 427 kts 268°
2026-04-17 13:15 37.56969 119.34328 26998 ft 426 kts 267°
2026-04-17 13:15 37.56704 119.30602 26734 ft 425 kts 267°
2026-04-17 13:16 37.56440 119.26887 26469 ft 425 kts 267°
2026-04-17 13:16 37.56176 119.23200 26218 ft 424 kts 267°
2026-04-17 13:16 37.55910 119.19511 25954 ft 424 kts 267°
2026-04-17 13:16 37.55641 119.15816 25704 ft 423 kts 267°
2026-04-17 13:17 37.55374 119.12160 25585 ft 423 kts 267°
2026-04-17 13:17 37.55101 119.08430 25586 ft 423 kts 267°
2026-04-17 13:17 37.54831 119.04742 25580 ft 424 kts 267°
2026-04-17 13:17 37.54558 119.01054 25568 ft 424 kts 267°
2026-04-17 13:18 37.54284 118.97379 25584 ft 424 kts 267°
2026-04-17 13:18 37.54005 118.93658 25580 ft 425 kts 267°
2026-04-17 13:18 37.53725 118.89947 25573 ft 425 kts 267°
2026-04-17 13:18 37.53447 118.86271 25573 ft 425 kts 267°
2026-04-17 13:19 37.53169 118.82586 25578 ft 424 kts 267°
2026-04-17 13:19 37.52866 118.78880 25575 ft 425 kts 266°
2026-04-17 13:19 37.52451 118.75178 25571 ft 425 kts 264°
2026-04-17 13:19 37.52007 118.71529 25574 ft 425 kts 264°
2026-04-17 13:20 37.51552 118.67848 25409 ft 425 kts 264°
2026-04-17 13:20 37.51098 118.64200 25129 ft 424 kts 264°
2026-04-17 13:20 37.50641 118.60539 24789 ft 423 kts 264°
2026-04-17 13:20 37.50184 118.56900 24347 ft 421 kts 264°
2026-04-17 13:21 37.49728 118.53279 23805 ft 417 kts 264°
2026-04-17 13:21 37.49277 118.49708 23231 ft 414 kts 264°
2026-04-17 13:21 37.48830 118.46159 22640 ft 412 kts 264°
2026-04-17 13:21 37.48383 118.42633 22049 ft 409 kts 264°
2026-04-17 13:22 37.47935 118.39105 21450 ft 407 kts 264°
2026-04-17 13:22 37.47490 118.35606 20871 ft 405 kts 264°
2026-04-17 13:22 37.47047 118.32142 20285 ft 403 kts 264°
2026-04-17 13:22 37.46606 118.28691 19719 ft 400 kts 264°
2026-04-17 13:23 37.46162 118.25221 19137 ft 397 kts 264°
2026-04-17 13:23 37.45726 118.21825 18574 ft 395 kts 264°
2026-04-17 13:23 37.45306 118.18440 18022 ft 392 kts 264°
2026-04-17 13:23 37.44897 118.15088 17480 ft 389 kts 264°
2026-04-17 13:24 37.44490 118.11755 16936 ft 387 kts 264°
2026-04-17 13:24 37.44077 118.08405 16406 ft 384 kts 264°
2026-04-17 13:24 37.43670 118.05124 15888 ft 382 kts 264°
2026-04-17 13:24 37.43262 118.01861 15378 ft 380 kts 264°
2026-04-17 13:25 37.42849 117.98566 14857 ft 377 kts 264°
2026-04-17 13:25 37.42441 117.95328 14345 ft 375 kts 264°
2026-04-17 13:25 37.42038 117.92128 13844 ft 373 kts 264°
2026-04-17 13:25 37.41631 117.88901 13326 ft 372 kts 263°
2026-04-17 13:26 37.41228 117.85731 12815 ft 370 kts 264°
2026-04-17 13:26 37.40823 117.82542 12297 ft 368 kts 264°
2026-04-17 13:26 37.40421 117.79388 11777 ft 367 kts 264°
2026-04-17 13:26 37.40016 117.76208 11256 ft 365 kts 263°
2026-04-17 13:27 37.39616 117.73087 10742 ft 364 kts 263°
2026-04-17 13:27 37.39212 117.69943 10412 ft 356 kts 263°
2026-04-17 13:27 37.38824 117.66950 10278 ft 341 kts 263°
2026-04-17 13:27 37.38451 117.64075 10161 ft 327 kts 264°
2026-04-17 13:28 37.38094 117.61333 10066 ft 314 kts 264°
2026-04-17 13:28 37.37749 117.58675 9984 ft 300 kts 264°
2026-04-17 13:28 37.37418 117.56117 9642 ft 298 kts 264°
2026-04-17 13:28 37.37089 117.53552 9284 ft 295 kts 264°
2026-04-17 13:29 37.36757 117.50993 8934 ft 293 kts 263°
2026-04-17 13:29 37.36421 117.48497 8596 ft 291 kts 263°
2026-04-17 13:29 37.36081 117.46014 8263 ft 288 kts 263°
2026-04-17 13:29 37.35733 117.43510 7929 ft 285 kts 261°
2026-04-17 13:30 37.35241 117.41136 7647 ft 283 kts 253°
2026-04-17 13:30 37.34512 117.38835 7339 ft 281 kts 249°
2026-04-17 13:30 37.33723 117.36627 6995 ft 280 kts 248°
2026-04-17 13:30 37.33533 117.36104 6916 ft 280 kts 248°
2026-04-17 13:31 37.32659 117.33694 6559 ft 278 kts 247°
2026-04-17 13:31 37.31863 117.31478 6241 ft 275 kts 247°
2026-04-17 13:31 37.31086 117.29313 5948 ft 272 kts 245°
2026-04-17 13:32 37.29988 117.27406 5566 ft 273 kts 217°
2026-04-17 13:32 37.28263 117.26469 5271 ft 269 kts 193°
2026-04-17 13:32 37.26451 117.26019 5112 ft 260 kts 191°
2026-04-17 13:32 37.24715 117.25607 4951 ft 252 kts 192°
2026-04-17 13:33 37.23028 117.25152 4791 ft 244 kts 193°
2026-04-17 13:33 37.21405 117.24668 4639 ft 236 kts 194°
2026-04-17 13:33 37.19837 117.24171 4484 ft 228 kts 195°
2026-04-17 13:33 37.18328 117.23678 4329 ft 220 kts 195°
2026-04-17 13:34 37.16863 117.23193 4175 ft 212 kts 195°
2026-04-17 13:34 37.15468 117.22730 4085 ft 199 kts 196°
2026-04-17 13:34 37.14186 117.22302 3965 ft 188 kts 197°
2026-04-17 13:34 37.12917 117.21899 3656 ft 186 kts 192°
2026-04-17 13:35 37.11647 117.21680 3373 ft 184 kts 186°
2026-04-17 13:35 37.10381 117.21598 3132 ft 183 kts 183°
2026-04-17 13:35 37.09100 117.21579 2885 ft 182 kts 182°
2026-04-17 13:35 37.07839 117.21574 2641 ft 181 kts 182°
2026-04-17 13:36 37.06579 117.21570 2395 ft 181 kts 182°
2026-04-17 13:36 37.05314 117.21574 2144 ft 179 kts 182°
2026-04-17 13:36 37.04079 117.21581 1988 ft 171 kts 182°
2026-04-17 13:36 37.02937 117.21586 1975 ft 160 kts 182°
2026-04-17 13:37 37.01831 117.21587 1984 ft 160 kts 182°
2026-04-17 13:37 37.00702 117.21589 1988 ft 160 kts 182°
2026-04-17 13:37 36.99588 117.21590 1989 ft 160 kts 182°
2026-04-17 13:37 36.98475 117.21590 1989 ft 160 kts 182°
2026-04-17 13:38 36.97363 117.21590 1970 ft 159 kts 182°
2026-04-17 13:38 36.96288 117.21593 1826 ft 149 kts 182°
2026-04-17 13:38 36.95263 117.21594 1623 ft 143 kts 182°
2026-04-17 13:38 36.94279 117.21594 1419 ft 141 kts 181°
2026-04-17 13:39 36.93295 117.21594 1224 ft 141 kts 181°
2026-04-17 13:39 36.92315 117.21603 1035 ft 140 kts 180°
2026-04-17 13:39 36.91334 117.21635 857 ft 139 kts 180°
2026-04-17 13:39 36.90367 117.21637 672 ft 139 kts 181°
2026-04-17 13:40 36.89397 117.21623 497 ft 138 kts 181°
2026-04-17 13:40 36.88444 117.21606 327 ft 138 kts 180°
2026-04-17 13:40 36.87490 117.21604 145 ft 136 kts 180°
2026-04-17 13:40 36.86565 117.21597 85 ft 124 kts 180°
2026-04-17 13:41 36.85845 117.21596 84 ft 78 kts 180°
2026-04-17 13:41 36.85461 117.21594 84 ft 40 kts 180°
2026-04-17 13:41 36.85208 117.21578 84 ft 33 kts 193°
2026-04-17 13:41 36.85054 117.21496 84 ft 13 kts 209°
2026-04-17 13:42 36.84980 117.21443 84 ft 8 kts 210°
2026-04-17 13:42 36.84926 117.21404 84 ft 9 kts 209°
2026-04-17 13:42 36.84874 117.21366 84 ft 6 kts 219°
2026-04-17 13:42 36.84856 117.21308 84 ft 8 kts 270°
2026-04-17 13:43 36.84876 117.21237 84 ft 9 kts 295°
2026-04-17 13:43 36.84901 117.21170 84 ft 8 kts 294°
2026-04-17 13:43 36.84926 117.21101 84 ft 7 kts 294°
2026-04-17 13:43 36.84933 117.21050 84 ft 6 kts 244°
2026-04-17 13:44 36.84891 117.21014 84 ft 7 kts 205°
2026-04-17 13:44 36.84849 117.20990 84 ft 4 kts 205°
2026-04-17 13:44 36.84831 117.20979 84 ft 1 kts 205°
2026-04-17 13:44 36.84826 117.20976 84 ft 0 kts 205°
2026-04-17 13:45 36.84822 117.20975 84 ft 0 kts 205°